Weather History for Tampa, FL

Change the Weather History Date:

Sunday, November 11, 2012

  Actual Average Record
Temperature  
Mean Temperature 70 °F 70 °F  
Max Temperature 81 °F 79 °F 88 °F (1986)
Min Temperature 59 °F 61 °F 40 °F (1892)
Degree Days  
Heating Degree Days 0 1  
Month to date heating degree days 11 9  
Since 1 July heating degree days 17 13  
Cooling Degree Days 5 6  
Month to date cooling degree days 35 75  
Year to date cooling degree days 3830 3441  
Growing Degree Days 20 (Base 50)    
Moisture  
Dew Point 56 °F    
Average Humidity 63    
Maximum Humidity 80    
Minimum Humidity 45    
Precipitation  
Precipitation 0.00 in 0.05 in 0.83 in (1968)
Month to date precipitation 0.08 0.57  
Year to date precipitation 53.71 42.85  
Sea Level Pressure  
Sea Level Pressure 30.26 in    
Wind  
Wind Speed 5 mph (ENE)    
Max Wind Speed 16 mph    
Max Gust Speed 22 mph    
Visibility 10 miles    
Events      
T = Trace of Precipitation, MM = Missing Value Source: NWS Daily Summary

Daily Weather History Graph

Daily Weather History Graph

Search for Another Location

Airport:

Trip Planner

Search our weather history database for the weather conditions in past years. The results will help you decide how hot, cold, wet, or windy it might be!

Date:

Astronomy

Nov. 11, 2012 Rise Set
Actual Time 6:48 AM EST 5:39 PM EST
Civil Twilight 6:24 AM EST 6:03 PM EST
Nautical Twilight 5:56 AM EST 6:32 PM EST
Astronomical Twilight 5:28 AM EST 6:59 PM EST
Moon 4:12 AM EST (11/11) 3:53 PM EST (11/11)
Length of Visible Light 11h 39m
Length of Day
10h 50m
Waning Crescent, 7% of the Moon is Illuminated
Nov 11
Waning Crescent
Nov 13
New
Nov 20
First Quarter
Nov 28
Full
Dec 6
Last Quarter

Hourly Weather History & Observations

Time (EST) Temp. Heat Index Dew Point Humidity Pressure Visibility Wind Dir Wind Speed Gust Speed Precip Events Conditions
12:53 AM 62.1 °F - 53.1 °F 72% 30.27 in 10.0 mi NE 4.6 mph - N/A   Mostly Cloudy
1:53 AM 61.0 °F - 53.1 °F 75% 30.26 in 10.0 mi ENE 3.5 mph - N/A   Partly Cloudy
2:53 AM 61.0 °F - 53.1 °F 75% 30.25 in 10.0 mi NE 5.8 mph - N/A   Clear
3:53 AM 60.1 °F - 53.1 °F 78% 30.25 in 10.0 mi Calm Calm - N/A   Clear
4:53 AM 59.0 °F - 53.1 °F 81% 30.26 in 10.0 mi NE 3.5 mph - N/A   Partly Cloudy
5:53 AM 59.0 °F - 53.1 °F 81% 30.26 in 10.0 mi NE 3.5 mph - N/A   Clear
6:53 AM 59.0 °F - 54.0 °F 83% 30.27 in 10.0 mi NE 3.5 mph - N/A   Partly Cloudy
7:53 AM 63.0 °F - 55.0 °F 75% 30.29 in 10.0 mi NE 4.6 mph - N/A   Clear
8:53 AM 66.2 °F - 55.4 °F 68% 30.30 in 10.0 mi NE 6.9 mph - N/A   Partly Cloudy
9:53 AM 73.0 °F - 55.9 °F 55% 30.30 in 10.0 mi ENE 6.9 mph - N/A   Partly Cloudy
10:53 AM 75.9 °F - 57.0 °F 52% 30.30 in 10.0 mi Variable 5.8 mph - N/A   Mostly Cloudy
11:53 AM 78.1 °F - 57.9 °F 50% 30.27 in 10.0 mi ESE 9.2 mph - N/A   Scattered Clouds
12:53 PM 79.0 °F - 55.9 °F 45% 30.25 in 10.0 mi Variable 6.9 mph 18.4 mph N/A   Mostly Cloudy
1:53 PM 78.1 °F - 57.0 °F 48% 30.23 in 10.0 mi ENE 6.9 mph 20.7 mph N/A   Mostly Cloudy
2:53 PM 80.1 °F 80.4 °F 57.0 °F 45% 30.22 in 10.0 mi ESE 9.2 mph - N/A   Mostly Cloudy
3:53 PM 78.1 °F - 60.1 °F 54% 30.23 in 10.0 mi ESE 8.1 mph - N/A   Mostly Cloudy
4:53 PM 77.0 °F - 57.9 °F 52% 30.22 in 10.0 mi East 8.1 mph - N/A   Scattered Clouds
5:53 PM 75.0 °F - 57.9 °F 55% 30.22 in 10.0 mi ENE 5.8 mph - N/A   Partly Cloudy
6:53 PM 73.0 °F - 57.9 °F 59% 30.25 in 10.0 mi Variable 4.6 mph - N/A   Partly Cloudy
7:53 PM 72.0 °F - 57.9 °F 61% 30.26 in 10.0 mi ENE 5.8 mph - N/A   Mostly Cloudy
8:53 PM 71.1 °F - 57.9 °F 63% 30.26 in 10.0 mi ENE 4.6 mph - N/A   Partly Cloudy
9:53 PM 69.1 °F - 59.0 °F 70% 30.26 in 10.0 mi ENE 4.6 mph - N/A   Clear
10:53 PM 68.0 °F - 60.1 °F 76% 30.25 in 10.0 mi East 4.6 mph - N/A   Clear
11:53 PM 66.9 °F - 60.1 °F 79% 30.24 in 10.0 mi East 3.5 mph - N/A   Partly Cloudy